727  
ASUS41 KBOX 180810  
RWRBOX  
 
REGIONAL WEATHER ROUNDUP  
NATIONAL WEATHER SERVICE TAUNTON MA  
300 AM EST SUN FEB 18 2018  
 
NOTE: "FAIR" INDICATES FEW OR NO CLOUDS BELOW 12,000 FEET WITH NO  
SIGNIFICANT WEATHER AND/OR S TO VISIBILITY
.  
 
MAZALL-180900-  
EASTERN MASSACHUSETTS  
 
CITY SKY/WX TMP DP RH WIND PRES REMARKS
 
BOSTON LGT SNOW 32 32 100 NE8 29.90F FOG WCI 25  
BEVERLY LGT SNOW 33 32 96 N5 29.90F FOG WCI 29  
LAWRENCE LGT SNOW 33 31 92 N6 29.93F VSB 1 WCI 28  
BEDFORD LGT SNOW 31 30 96 NW5 29.90F FOG WCI 26  
BLUE HILL N/A 30 30 100 NE9 29.85F WCI 22  
NORWOOD LGT SNOW 34 33 96 CALM 29.90F VSB 1  
MARSHFIELD LGT RAIN 34 34 100 CALM 29.89F  
PLYMOUTH LGT RAIN 34 34 100 NW3 29.89F FOG  
TAUNTON LGT RAIN 33 32 96 CALM 29.88F FOG  
NEW BEDFORD LGT RAIN 34 34 100 N5 29.88F WCI 30  

 
 
MAZALL-180900-  
CAPE COD AND THE ISLANDS  
 
CITY SKY/WX TMP DP RH WIND PRES REMARKS
 
FALMOUTH DRIZZLE 37 37 100 E6 29.86  
HYANNIS LGT RAIN 41 40 96 E6 29.85F FOG  
CHATHAM LGT RAIN 41 41 100 E8 29.86F FOG  
PROVINCETOWN LGT RAIN 37 37 100 SE3 29.88F FOG  
NANTUCKET RAIN 42 42 100 E7 29.86F FOG  
MARTHAS VNYRD LGT RAIN N/A N/A N/A E3 29.84F  

 
 
MAZALL-180900-  
CENTRAL AND WESTERN MASSACHUSETTS  
 
CITY SKY/WX TMP DP RH WIND PRES REMARKS
 
WORCESTER LGT SNOW 27 25 92 N6 29.87F FOG WCI 20  
FITCHBURG LGT SNOW 31 29 92 NW5 29.91F VSB 1 WCI 26  
ORANGE LGT SNOW 29 28 96 NW6 29.92F FOG WCI 23  
SPRINGFIELD LGT SNOW 29 28 96 N5 29.91F FOG WCI 24  
WESTFIELD LGT SNOW 29 28 96 N7 29.92 FOG WCI 22  
NORTH ADAMS LGT SNOW 29 27 92 SE3 29.91F FOG  
PITTSFIELD LGT SNOW 28 25 88 CALM 29.87F FOG  

 
 
RIZALL-180900-  
RHODE ISLAND  
 
CITY SKY/WX TMP DP RH WIND PRES REMARKS
 
PROVIDENCE LGT SNOW 33 32 96 N9 29.90F VSB 1 WCI 25  
NEWPORT RAIN 33 33 100 N5 29.87S FOG WCI 29  
BLOCK ISLAND RAIN 37 37 100 N6 29.89F FOG  
SMITHFIELD LGT SNOW 30 29 96 NE6 29.88F FOG WCI 24  
WESTERLY LGT RAIN 34 34 100 CALM 29.90F FOG  

 
 
CTZALL-180900-  
CONNECTICUT  
 
CITY SKY/WX TMP DP RH WIND PRES REMARKS
 
BRADLEY INTL LGT SNOW 30 28 92 N5 29.92F FOG WCI 25  
HARTFORD LGT SNOW 31 29 92 CALM 29.93S FOG  
BRIDGEPORT LGT SNOW 33 33 100 CALM 29.93F FOG  
DANBURY CLOUDY 31 29 92 W3 29.94F FOG  
GROTON LGT RAIN 34 32 92 CALM 29.90F FOG  
NEW HAVEN LGT SNOW 33 32 96 CALM 29.92F FOG  
CHESTER LGT SNOW 34 32 93 CALM 29.89F  
MERIDEN LGT SNOW 30 29 96 CALM 29.92F FOG  
WILLIMANTIC LGT SNOW 32 31 96 CALM 29.90F FOG  
OXFORD LGT SNOW 29 28 96 NW3 29.90F FOG  

 
 
MEZ002-015-021-024-NHZ003-005-008-011-012-014-VTZ005-008-180900-  
NORTHERN NEW ENGLAND  
 
CITY SKY/WX TMP DP RH WIND PRES REMARKS
 
PORTLAND ME LGT SNOW 32 32 100 E8 29.96F VSB 1 WCI 25  
BANGOR ME LGT SNOW 31 29 92 SE6 29.99F FOG WCI 25  
CONCORD NH LGT SNOW 29 26 89 N3 29.94F VSB 3/4  
MANCHESTER NH LGT SNOW 30 28 92 N6 29.92F VSB 3/4 WCI 24  
NASHUA NH LGT SNOW 29 29 100 NW7 29.93F VSB 1 WCI 22  
PORTSMOUTH NH LGT SNOW 32 32 98 CALM 29.92F VSB 3/4  
JAFFREY NH LGT SNOW 29 28 96 CALM 29.89F VSB 1  
KEENE NH LGT SNOW 28 26 92 N3 29.93F FOG  
BURLINGTON VT LGT SNOW 31 27 85 S5 29.94S FOG WCI 26  
MT. WASHINGTON SNOW 10 10 100 W37 N/A VSB 1/16WCI -14  

 
 
NYZ052-076-180900-  
EASTERN NEW YORK  
 
CITY SKY/WX TMP DP RH WIND PRES REMARKS
 
ALBANY LGT SNOW 30 28 92 S3 29.96R FOG  
NEW YORK CITY CLOUDY 34 32 92 NW8 29.96S FOG WCI 27  

 
 
ANZALL-180900-  
MARINE OBSERVATIONS  
 
STATION/POSITION TIME TEMP WIND PRES VSBY WAVE
 
AIR SEA DIR/SP/G HT/PER  
(UTC) (F) (DEG/KT/KT) (MB) (MI) (FT/S)  
BOSTON BUOY 0750 35 39 190/ 2/ 2 1012.1F 3/ 4  
BUZZARDS BAY 0800 36 330/ 10/ 11 1012.4F  
NANTUCKET SOUND 0750 39 37 110/ 8/ 10 1011.0F 2/ 6  
MASS BAY-STELLWA 0704 33 39 1013.3F 4/ 5  
ISLE OF SHOALS 0800 32 60/ 7/ 7 1013.0F  
S OF BLOCK IS 0743 38 N/A 4/ 5  

 
   
.....................KEY......................
 
 
SKY/WX - SKY CONDITION/PRESENT WEATHER  
TMP - TEMPERATURE IN FAHRENHEIT  
DWPT - DEWPOINT IN FAHRENHEIT  
RH - RELATIVE HUMIDITY IN PERCENT  
WIND - DIRECTION AND SPEED IN MPH  
PRES - MEAN SEA LEVEL PRESSURE IN INCHES OF HG  
WCI - WIND CHILL INDEX  
VSB - VISIBILITY IN MILES  
HX - HEAT INDEX  
TC - TEMPERATURE IN CELSIUS  
VRB - VARIABLE WIND DIRECTION  
N/A - NOT AVAILABLE  
 
 
CLICK HERE TO GO TO PREVIOUS BULLETINS.

The Nexlab MA Page
The Nexlab RI Page
The Nexlab NH Page
The Nexlab CT Page Main Text Page